GW1112 Weather Reports


time (UTC)temp
C
wind
direction
speed
KPH
gust
KPH
rain 1hr
cm
rain 24hr
cm
rain mn
cm
humidity
%
barometer
mb
20260505124555 21 226 3.2 4.8 0.00 0.00 0.00 67 1009.0
20260505124051 20 235 4.8 6.4 0.00 0.00 0.00 65 1009.2
20260505123548 20 226 0.0 1.6 0.00 0.00 0.00 68 1009.4
20260505123044 19 248 4.8 6.4 0.00 0.00 0.00 69 1009.0
20260505122541 18 264 3.2 4.8 0.00 0.00 0.00 72 1009.2
20260505122038 17 241 3.2 4.8 0.00 0.00 0.00 74 1009.2
20260505121534 17 232 1.6 1.6 0.00 0.00 0.00 75 1009.3
20260505121031 17 231 1.6 3.2 0.00 0.00 0.00 75 1009.6
20260505120528 16 252 1.6 1.6 0.00 0.00 0.00 77 1009.5
20260505120023 16 255 1.6 3.2 0.00 0.00 0.00 77 1009.4
20260505115518 16 243 0.0 0.0 0.00 0.00 0.00 78 1009.5
20260505115016 16 260 1.6 3.2 0.00 0.00 0.00 78 1009.4
20260505114513 16 246 1.6 1.6 0.00 0.00 0.00 77 1009.4
20260505114009 16 265 3.2 4.8 0.00 0.00 0.00 78 1009.5
20260505113506 16 242 0.0 0.0 0.00 0.00 0.00 80 1009.5
20260505113001 16 243 0.0 0.0 0.00 0.00 0.00 80 1009.4
20260505112458 16 224 0.0 0.0 0.00 0.00 0.00 81 1009.6
20260505111955 16 240 1.6 1.6 0.00 0.00 0.00 78 1009.5
20260505111449 16 230 4.8 6.4 0.00 0.00 0.00 77 1009.6
20260505110946 16 225 3.2 4.8 0.00 0.00 0.00 78 1009.5
20260505110443 16 242 0.0 1.6 0.00 0.00 0.00 78 1009.1
20260505101914 13 248 0.0 0.0 0.00 0.00 0.00 82 1008.5
20260505101409 12 248 1.6 1.6 0.00 0.00 0.00 84 1008.7
20260505100905 12 245 0.0 1.6 0.00 0.00 0.00 87 1008.6
20260505100402 11 251 0.0 0.0 0.00 0.00 0.00 88 1008.6
20260505095857 11 234 0.0 0.0 0.00 0.00 0.00 88 1008.9
20260505095355 11 227 0.0 0.0 0.00 0.00 0.00 88 1008.7
20260505094851 12 227 0.0 0.0 0.00 0.00 0.00 86 1008.6
20260505094348 12 239 0.0 0.0 0.00 0.00 0.00 84 1008.7
20260505093844 12 248 0.0 0.0 0.00 0.00 0.00 86 1008.6
20260505093341 11 245 0.0 0.0 0.00 0.00 0.00 88 1008.6
20260505092839 11 246 0.0 0.0 0.00 0.00 0.00 89 1008.5
20260505092337 12 239 0.0 0.0 0.00 0.00 0.00 87 1008.7
20260505091833 12 229 0.0 0.0 0.00 0.00 0.00 87 1008.7
20260505091332 12 244 0.0 0.0 0.00 0.00 0.00 84 1008.5
20260505090829 12 244 0.0 0.0 0.00 0.00 0.00 85 1008.3
20260505090328 12 243 0.0 0.0 0.00 0.00 0.00 85 1008.1
20260505085824 12 241 0.0 0.0 0.00 0.00 0.00 87 1008.3
20260505085322 11 241 0.0 0.0 0.00 0.00 0.00 88 1008.2
20260505084820 12 240 0.0 0.0 0.00 0.00 0.00 87 1008.2
20260505084318 12 249 0.0 0.0 0.00 0.00 0.00 87 1008.3
20260505083814 11 251 0.0 0.0 0.00 0.00 0.00 88 1008.3
20260505083311 11 252 0.0 0.0 0.00 0.00 0.00 88 1008.2
20260505082807 11 239 0.0 0.0 0.00 0.00 0.00 89 1008.2
20260505082305 12 239 0.0 0.0 0.00 0.00 0.00 88 1008.3
20260505081800 12 240 0.0 0.0 0.00 0.00 0.00 87 1008.5
20260505081257 12 239 0.0 0.0 0.00 0.00 0.00 86 1008.5
20260505080754 12 247 0.0 0.0 0.00 0.00 0.00 85 1008.7
20260505080250 12 244 0.0 0.0 0.00 0.00 0.00 87 1008.6
20260505075745 12 245 0.0 0.0 0.00 0.00 0.00 87 1008.4
20260505075243 12 244 0.0 0.0 0.00 0.00 0.00 86 1008.3
20260505074740 12 239 0.0 0.0 0.00 0.00 0.00 85 1008.2
20260505074237 12 238 0.0 0.0 0.00 0.00 0.00 85 1008.1
20260505073735 12 238 0.0 0.0 0.00 0.00 0.00 85 1007.9
20260505073233 12 241 0.0 0.0 0.00 0.00 0.00 86 1008.0
20260505072729 12 235 0.0 0.0 0.00 0.00 0.00 87 1007.9
20260505072225 11 246 0.0 0.0 0.00 0.00 0.00 88 1008.1
20260505071721 11 247 0.0 0.0 0.00 0.00 0.00 89 1007.9
20260505071219 11 229 0.0 0.0 0.00 0.00 0.00 90 1008.0
20260505070716 11 242 0.0 0.0 0.00 0.00 0.00 91 1007.7
20260505070212 11 244 0.0 0.0 0.00 0.00 0.00 90 1008.0
20260505065708 11 237 0.0 0.0 0.00 0.00 0.00 90 1007.9
20260505065205 11 237 0.0 0.0 0.00 0.00 0.00 90 1008.1
20260505064701 11 237 0.0 0.0 0.00 0.00 0.00 89 1008.0
20260505064200 11 237 0.0 0.0 0.00 0.00 0.00 88 1008.0
20260505063657 11 240 0.0 0.0 0.00 0.00 0.00 87 1008.1
20260505063153 12 240 0.0 0.0 0.00 0.00 0.00 87 1008.0
20260505062649 12 241 0.0 0.0 0.00 0.00 0.00 86 1008.1
20260505062147 12 240 0.0 0.0 0.00 0.00 0.00 86 1008.1
20260505061644 12 240 0.0 0.0 0.00 0.00 0.00 85 1008.0
20260505061142 12 243 0.0 0.0 0.00 0.00 0.00 84 1008.1
20260505060639 13 244 0.0 0.0 0.00 0.00 0.00 84 1008.2
20260505060136 13 245 0.0 0.0 0.00 0.00 0.00 83 1008.1
20260505055631 13 242 0.0 0.0 0.00 0.00 0.00 81 1008.3
20260505055128 13 243 0.0 0.0 0.00 0.00 0.00 80 1008.4
20260505054625 14 243 0.0 0.0 0.00 0.00 0.00 79 1008.4
20260505054123 15 234 0.0 0.0 0.00 0.00 0.00 77 1008.5
20260505053620 15 233 0.0 0.0 0.00 0.00 0.00 76 1008.4
20260505053116 15 241 0.0 0.0 0.00 0.00 0.00 75 1008.6
20260505052613 15 241 0.0 0.0 0.00 0.00 0.00 77 1008.5
20260505052111 14 244 0.0 0.0 0.00 0.00 0.00 79 1008.5
20260505051608 14 243 0.0 0.0 0.00 0.00 0.00 78 1008.6
20260505051106 14 242 0.0 0.0 0.00 0.00 0.00 78 1008.6
20260505050604 15 242 0.0 0.0 0.00 0.00 0.00 77 1008.4
20260505041531 17 245 1.6 1.6 0.00 0.00 0.00 69 1008.3
20260505041029 17 257 3.2 3.2 0.00 0.00 0.00 68 1008.4
20260505040526 17 256 4.8 4.8 0.00 0.00 0.00 67 1008.5
20260505040023 17 267 3.2 4.8 0.00 0.00 0.00 68 1008.3
20260505035519 16 267 4.8 6.4 0.00 0.00 0.00 71 1008.3
20260505035016 16 242 0.0 0.0 0.00 0.00 0.00 70 1008.2
20260505034512 16 246 1.6 1.6 0.00 0.00 0.00 70 1008.3
20260505034010 17 245 1.6 1.6 0.00 0.00 0.00 69 1008.3
20260505033506 16 253 3.2 4.8 0.00 0.00 0.00 69 1008.2
20260505033005 16 249 3.2 3.2 0.00 0.00 0.00 69 1008.2
20260505032502 16 246 3.2 3.2 0.00 0.00 0.00 71 1008.2
20260505031958 14 249 0.0 0.0 0.00 0.00 0.00 76 1008.3
20260505031455 13 246 0.0 0.0 0.00 0.00 0.00 81 1008.2
20260505030952 12 243 0.0 0.0 0.00 0.00 0.00 84 1008.1
20260505030448 13 243 0.0 0.0 0.00 0.00 0.00 84 1008.3
20260505025943 13 242 0.0 0.0 0.00 0.00 0.00 81 1008.2
20260505025441 13 242 0.0 0.0 0.00 0.00 0.00 81 1008.2
20260505024940 13 244 0.0 0.0 0.00 0.00 0.00 80 1008.2
20260505024436 14 235 0.0 0.0 0.00 0.00 0.00 78 1008.2
20260505023933 15 240 0.0 0.0 0.00 0.00 0.00 76 1008.1
20260505023430 15 240 0.0 0.0 0.00 0.00 0.00 75 1008.2
20260505022928 15 240 0.0 0.0 0.00 0.00 0.00 73 1008.1
20260505022426 16 240 0.0 0.0 0.00 0.00 0.00 72 1008.3
20260505021922 16 240 0.0 0.0 0.00 0.00 0.00 68 1008.4
20260505021418 17 240 0.0 0.0 0.00 0.00 0.00 67 1008.4
20260505020914 17 247 3.2 3.2 0.00 0.00 0.00 66 1008.4
20260505020410 17 242 0.0 0.0 0.00 0.00 0.00 66 1008.4
20260505015907 17 245 1.6 3.2 0.00 0.00 0.00 64 1008.6
20260505015404 17 244 0.0 0.0 0.00 0.00 0.00 66 1008.3
20260505014901 17 249 1.6 1.6 0.00 0.00 0.00 65 1008.0
20260505014358 17 241 0.0 0.0 0.00 0.00 0.00 63 1008.3
20260505013855 17 240 0.0 0.0 0.00 0.00 0.00 62 1008.2
20260505013352 17 250 1.6 3.2 0.00 0.00 0.00 63 1008.4
20260505012850 17 244 0.0 0.0 0.00 0.00 0.00 63 1008.2
20260505012348 16 248 0.0 1.6 0.00 0.00 0.00 65 1008.1
20260505011844 16 247 0.0 0.0 0.00 0.00 0.00 65 1008.0
20260505011341 17 248 0.0 0.0 0.00 0.00 0.00 65 1007.9
20260505010837 17 246 0.0 0.0 0.00 0.00 0.00 64 1007.8
20260505010333 17 247 0.0 0.0 0.00 0.00 0.00 63 1007.6
20260505005829 17 245 0.0 0.0 0.00 0.00 0.00 63 1007.7
20260505005326 17 241 0.0 0.0 0.00 0.00 0.00 62 1007.9
20260505004824 17 251 1.6 1.6 0.00 0.00 0.00 63 1008.0
20260505004320 17 242 0.0 0.0 0.00 0.00 0.00 64 1007.6
20260505003817 17 237 0.0 0.0 0.00 0.00 0.00 63 1007.4
20260505003314 17 236 0.0 0.0 0.00 0.00 0.00 63 1007.8
20260505002810 17 233 1.6 3.2 0.00 0.00 0.00 62 1007.6
20260505002308 17 238 0.0 0.0 0.00 0.00 0.00 63 1007.4
20260505001806 17 237 0.0 0.0 0.00 0.00 0.00 62 1007.3
20260505001303 17 233 0.0 0.0 0.00 0.00 0.00 61 1007.3
20260505000800 18 230 0.0 0.0 0.00 0.00 0.00 60 1007.2
20260505000258 18 229 0.0 0.0 0.00 0.00 0.00 60 1007.1
20260504235754 18 233 0.0 0.0 0.00 0.00 0.00 59 1007.2
20260504235250 19 232 0.0 0.0 0.00 0.00 0.00 58 1007.1
20260504234748 18 250 0.0 1.6 0.00 0.00 0.00 58 1007.0
20260504234245 19 235 0.0 0.0 0.00 0.00 0.00 58 1006.9
20260504233741 20 235 0.0 0.0 0.00 0.00 0.00 57 1006.9
20260504233237 20 241 0.0 0.0 0.00 0.00 0.00 56 1007.1
20260504232734 20 235 0.0 0.0 0.00 0.00 0.00 54 1007.0
20260504232231 20 239 1.6 3.2 0.00 0.00 0.00 55 1006.9
20260504231728 20 227 0.0 0.0 0.00 0.00 0.00 55 1006.9
20260504231224 21 238 0.0 0.0 0.00 0.00 0.00 53 1007.0
20260504230720 21 237 0.0 0.0 0.00 0.00 0.00 53 1007.0
20260504230219 21 222 0.0 0.0 0.00 0.00 0.00 52 1006.9
20260504225717 21 217 1.6 1.6 0.00 0.00 0.00 50 1007.1
20260504225213 22 237 0.0 0.0 0.00 0.00 0.00 50 1006.8
20260504224710 22 237 3.2 4.8 0.00 0.00 0.00 48 1006.7
20260504224208 22 268 4.8 6.4 0.00 0.00 0.00 48 1006.8
20260504223704 22 239 0.0 0.0 0.00 0.00 0.00 50 1006.8
20260504223200 22 214 3.2 3.2 0.00 0.00 0.00 49 1006.8
20260504222657 22 197 3.2 4.8 0.00 0.00 0.00 47 1006.6
20260504222153 22 240 3.2 3.2 0.00 0.00 0.00 48 1006.7
20260504221651 22 231 0.0 0.0 0.00 0.00 0.00 47 1006.7
20260504221148 23 224 0.0 0.0 0.00 0.00 0.00 47 1006.6
20260504220644 22 203 3.2 3.2 0.00 0.00 0.00 46 1006.8
20260504220142 22 255 0.0 0.0 0.00 0.00 0.00 47 1006.6
20260504215638 23 227 1.6 3.2 0.00 0.00 0.00 45 1006.6
20260504215136 23 241 1.6 3.2 0.00 0.00 0.00 45 1006.7
20260504214631 24 241 1.6 3.2 0.00 0.00 0.00 43 1006.7
20260504214128 23 266 3.2 4.8 0.00 0.00 0.00 44 1006.8
20260504213624 23 251 0.0 0.0 0.00 0.00 0.00 44 1006.8
20260504213121 23 236 0.0 0.0 0.00 0.00 0.00 44 1006.7
20260504212618 23 265 3.2 4.8 0.00 0.00 0.00 44 1006.5
20260504212115 24 244 6.4 6.4 0.00 0.00 0.00 41 1006.8
20260504211612 24 275 8.0 12.9 0.00 0.00 0.00 40 1006.6
20260504211109 25 251 4.8 6.4 0.00 0.00 0.00 39 1006.7
20260504210606 25 250 3.2 3.2 0.00 0.00 0.00 42 1006.7
20260504205600 23 214 1.6 3.2 0.00 0.00 0.00 40 1006.9
20260504205058 23 257 12.9 16.1 0.00 0.00 0.00 40 1006.8
20260504204556 23 237 1.6 1.6 0.00 0.00 0.00 45 1006.9
20260504204055 23 239 1.6 1.6 0.00 0.00 0.00 44 1006.9
20260504203552 23 234 0.0 0.0 0.00 0.00 0.00 43 1007.0
20260504203050 23 241 0.0 0.0 0.00 0.00 0.00 45 1007.0
20260504202545 22 249 0.0 0.0 0.00 0.00 0.00 44 1007.1
20260504202042 23 258 1.6 1.6 0.00 0.00 0.00 43 1007.1
20260504201539 23 254 6.4 11.3 0.00 0.00 0.00 39 1007.2
20260504201037 23 256 4.8 6.4 0.00 0.00 0.00 40 1007.1
20260504200533 23 227 1.6 3.2 0.00 0.00 0.00 41 1007.2
20260504200030 22 275 6.4 6.4 0.00 0.00 0.00 41 1007.3
20260504195526 23 265 3.2 3.2 0.00 0.00 0.00 41 1007.6
20260504195022 23 254 3.2 3.2 0.00 0.00 0.00 40 1007.4
20260504194519 25 256 9.7 11.3 0.00 0.00 0.00 39 1007.9
20260504194014 25 251 1.6 3.2 0.00 0.00 0.00 44 1007.8
20260504193511 24 262 3.2 4.8 0.00 0.00 0.00 42 1007.8
20260504193010 25 260 3.2 3.2 0.00 0.00 0.00 42 1007.9
20260504192508 24 194 6.4 11.3 0.00 0.00 0.00 42 1008.0
20260504192006 23 258 6.4 9.7 0.00 0.00 0.00 44 1007.8
20260504191503 22 195 1.6 3.2 0.00 0.00 0.00 44 1008.0
20260504190959 22 263 4.8 4.8 0.00 0.00 0.00 44 1008.1
20260504190455 23 246 4.8 4.8 0.00 0.00 0.00 47 1008.3
20260504185951 23 260 3.2 4.8 0.00 0.00 0.00 43 1008.3
20260504185449 23 272 16.1 24.1 0.00 0.00 0.00 42 1008.4
20260504184945 23 256 6.4 6.4 0.00 0.00 0.00 42 1008.3
20260504184441 25 266 6.4 11.3 0.00 0.00 0.00 41 1008.6
20260504183936 23 239 3.2 4.8 0.00 0.00 0.00 45 1008.6
20260504183434 24 270 3.2 4.8 0.00 0.00 0.00 44 1008.4
20260504182932 25 238 1.6 3.2 0.00 0.00 0.00 45 1008.6
20260504182428 24 242 0.0 1.6 0.00 0.00 0.00 42 1008.5
20260504181926 23 238 0.0 1.6 0.00 0.00 0.00 43 1008.7
20260504181423 23 238 1.6 3.2 0.00 0.00 0.00 47 1008.8
20260504180921 22 240 0.0 1.6 0.00 0.00 0.00 51 1009.0
20260504180420 23 270 14.5 17.7 0.00 0.00 0.00 43 1009.0
20260504175918 22 259 6.4 6.4 0.00 0.00 0.00 46 1009.0
20260504175414 22 243 3.2 4.8 0.00 0.00 0.00 47 1009.2
20260504174912 22 247 4.8 9.7 0.00 0.00 0.00 46 1009.1
20260504174410 21 297 11.3 14.5 0.00 0.00 0.00 46 1009.2
20260504173907 22 278 11.3 14.5 0.00 0.00 0.00 46 1009.4
20260504173403 22 279 3.2 6.4 0.00 0.00 0.00 46 1009.7
20260504172900 22 173 3.2 3.2 0.00 0.00 0.00 47 1009.5
20260504172357 23 254 3.2 6.4 0.00 0.00 0.00 47 1009.6
20260504171852 23 252 3.2 3.2 0.00 0.00 0.00 49 1009.7
20260504171350 23 266 8.0 11.3 0.00 0.00 0.00 45 1009.7
20260504170847 22 249 1.6 1.6 0.00 0.00 0.00 50 1009.7
20260504170343 22 243 4.8 11.3 0.00 0.00 0.00 50 1009.7
20260504160302 20 231 3.2 3.2 0.00 0.00 0.00 54 1011.0
20260504150727 19 242 0.0 1.6 0.00 0.00 0.00 55 1011.5
20260504150224 19 207 3.2 4.8 0.00 0.00 0.00 53 1011.6
20260504141153 18 260 1.6 1.6 0.00 0.00 0.00 52 1011.8
20260504140650 18 234 4.8 9.7 0.00 0.00 0.00 53 1011.8
20260504140146 18 235 0.0 0.0 0.00 0.00 0.00 53 1011.7
20260504130614 16 236 0.0 0.0 0.00 0.00 0.00 58 1012.1
20260504130111 15 237 0.0 0.0 0.00 0.00 0.00 61 1012.1